TimeAKDT,TemperatureF,Dew PointF,Humidity,Sea Level PressureIn,VisibilityMPH,Wind Direction,Wind SpeedMPH,Gust SpeedMPH,PrecipitationIn,Events,Conditions,WindDirDegrees,DateUTC
12:53 AM,55.9,32.0,40,29.96,10.0,NE,6.9,-,N/A,,Mostly Cloudy,40,2013-05-25 08:53:00
1:53 AM,53.1,32.0,45,29.97,10.0,NE,3.5,-,N/A,,Mostly Cloudy,50,2013-05-25 09:53:00
2:53 AM,48.9,33.1,54,29.97,10.0,NE,4.6,-,N/A,,Mostly Cloudy,50,2013-05-25 10:53:00
3:53 AM,48.0,32.0,54,29.97,10.0,Calm,Calm,-,N/A,,Mostly Cloudy,0,2013-05-25 11:53:00
4:53 AM,45.0,34.0,65,29.98,10.0,West,3.5,-,N/A,,Mostly Cloudy,280,2013-05-25 12:53:00
5:53 AM,45.0,33.1,63,29.98,10.0,Calm,Calm,-,N/A,,Scattered Clouds,0,2013-05-25 13:53:00
6:53 AM,53.1,32.0,45,29.97,10.0,NE,4.6,-,N/A,,Scattered Clouds,40,2013-05-25 14:53:00
7:53 AM,55.9,32.0,40,29.96,10.0,Calm,Calm,-,N/A,,Partly Cloudy,0,2013-05-25 15:53:00
8:53 AM,59.0,30.0,33,29.95,10.0,NE,4.6,-,N/A,,Scattered Clouds,40,2013-05-25 16:53:00
9:53 AM,63.0,30.9,30,29.94,10.0,Calm,Calm,-,N/A,,Scattered Clouds,0,2013-05-25 17:53:00
10:53 AM,66.0,28.9,25,29.94,10.0,ENE,3.5,-,N/A,,Scattered Clouds,60,2013-05-25 18:53:00
11:53 AM,69.1,30.9,24,29.91,10.0,Variable,3.5,-,N/A,,Scattered Clouds,0,2013-05-25 19:53:00
12:53 PM,70.0,30.9,24,29.90,10.0,Calm,Calm,-,N/A,,Scattered Clouds,0,2013-05-25 20:53:00
1:53 PM,73.0,28.9,20,29.88,10.0,East,3.5,-,N/A,,Scattered Clouds,100,2013-05-25 21:53:00
2:53 PM,73.9,23.0,15,29.88,10.0,NW,6.9,-,N/A,,Mostly Cloudy,310,2013-05-25 22:53:00
3:53 PM,75.0,27.0,17,29.86,10.0,Variable,4.6,-,N/A,,Mostly Cloudy,0,2013-05-25 23:53:00
4:53 PM,75.9,26.1,16,29.85,10.0,NE,5.8,-,N/A,,Scattered Clouds,40,2013-05-26 00:53:00
5:53 PM,75.9,25.0,15,29.83,10.0,Calm,Calm,-,N/A,,Scattered Clouds,0,2013-05-26 01:53:00
6:53 PM,75.0,26.1,16,29.81,10.0,West,4.6,-,N/A,,Scattered Clouds,260,2013-05-26 02:53:00
7:53 PM,73.9,24.1,16,29.81,10.0,Variable,4.6,-,N/A,,Scattered Clouds,0,2013-05-26 03:53:00
8:53 PM,71.1,27.0,19,29.81,10.0,SW,9.2,-,N/A,,Scattered Clouds,230,2013-05-26 04:53:00
9:53 PM,66.9,28.9,24,29.81,10.0,WSW,9.2,-,N/A,,Partly Cloudy,240,2013-05-26 05:53:00
10:53 PM,64.0,30.0,28,29.82,10.0,WSW,6.9,-,N/A,,Partly Cloudy,240,2013-05-26 06:53:00
11:53 PM,61.0,28.9,30,29.83,10.0,West,5.8,-,N/A,,Partly Cloudy,260,2013-05-26 07:53:00